Location: Krakow
(50.0830°N, 19.9170°E)
Time: 12:19:58
(UTC+01:00)

SR - All Passes

Search period start: 13 November 2024 00:00
Search period end: 23 November 2024 00:00
Orbit: 575 x 857 km, 66.7° (Epoch: 12 November)

Date Brightness Start Highest point End Pass type
(mag) Time Alt. Az. Time Alt. Az. Time Alt. Az.
13 Nov - 01:17:56 10° WNW 01:20:39 15° NNW 01:23:30 10° NNE visible
13 Nov - 03:02:56 10° NNW 03:04:35 11° N 03:06:17 10° NNE visible
13 Nov - 04:44:28 10° NNW 04:48:17 21° NNE 04:52:20 10° E visible
13 Nov - 06:25:46 10° NW 06:30:55 73° NE 06:36:27 10° SE daylight
13 Nov - 08:08:16 10° WNW 08:12:21 23° WSW 08:16:37 10° SSW daylight
13 Nov - 21:01:12 10° SE 21:03:16 13° ESE 21:05:24 10° ENE night (unlit)
13 Nov - 22:39:53 10° SW 22:44:14 88° NW 22:48:56 10° NE night (unlit)
14 Nov - 00:23:16 10° W 00:26:44 21° NNW 00:30:25 10° NNE night (unlit)
14 Nov - 02:08:50 10° NNW 02:10:26 11° N 02:12:05 10° NNE visible
14 Nov - 03:51:23 10° NNW 03:54:22 16° NNE 03:57:29 10° ENE visible
14 Nov - 05:32:36 10° NNW 05:37:27 42° NE 05:42:39 10° ESE visible
14 Nov - 07:14:24 10° NW 07:19:19 43° WSW 07:24:34 10° S daylight
14 Nov - 21:46:57 10° S 21:51:04 44° ESE 21:55:29 10° NE night (unlit)
14 Nov - 23:28:59 10° WSW 23:33:00 33° NW 23:37:18 10° NNE night (unlit)
15 Nov - 01:14:04 10° NW 01:16:20 13° NNW 01:18:40 10° NNE visible
15 Nov - 02:58:11 10° NNW 03:00:18 13° NNE 03:02:30 10° NE visible
15 Nov - 04:39:30 10° NNW 04:43:49 27° NE 04:48:23 10° E visible
15 Nov - 06:20:57 10° NW 06:26:08 79° SW 06:31:43 10° SSE daylight
15 Nov - 08:04:17 10° WNW 08:07:17 15° WSW 08:10:22 10° SW daylight
15 Nov - 20:54:49 10° SSE 20:58:08 21° ESE 21:01:35 10° ENE night (unlit)
15 Nov - 22:35:08 10° SW 22:39:27 58° NW 22:44:08 10° NNE night (unlit)
16 Nov - 00:19:16 10° WNW 00:22:18 17° NNW 00:25:30 10° NNE night (unlit)
16 Nov - 02:04:34 10° NNW 02:06:10 11° N 02:07:48 10° NNE visible
16 Nov - 03:46:25 10° NNW 03:49:59 19° NNE 03:53:44 10° ENE visible
16 Nov - 05:27:41 10° NNW 05:32:47 59° NE 05:38:15 10° SE visible
16 Nov - 07:09:52 10° NW 07:14:22 29° WSW 07:19:07 10° S daylight
16 Nov - 21:41:48 10° SSW 21:46:08 72° ESE 21:50:48 10° NE night (unlit)
16 Nov - 23:24:43 10° W 23:28:26 25° NNW 23:32:24 10° NNE night (unlit)
17 Nov - 01:10:10 10° NNW 01:12:01 12° N 01:13:56 10° NNE visible
17 Nov - 02:53:18 10° NNW 02:56:00 14° NNE 02:58:48 10° NE visible
17 Nov - 04:34:31 10° NNW 04:39:14 36° NE 04:44:17 10° ESE visible
17 Nov - 06:16:12 10° NW 06:21:17 54° WSW 06:26:44 10° SSE visible
17 Nov - 20:49:07 10° S 20:53:03 34° ESE 20:57:13 10° NE night (unlit)
17 Nov - 22:30:34 10° WSW 22:34:45 40° NW 22:39:16 10° NNE night (unlit)
18 Nov - 00:15:20 10° NW 00:17:55 14° NNW 00:20:37 10° NNE night (unlit)
18 Nov - 01:59:58 10° NNW 02:01:53 12° N 02:03:52 10° NNE visible
18 Nov - 03:41:26 10° NNW 03:45:31 24° NNE 03:49:50 10° E visible
18 Nov - 05:22:48 10° NW 05:28:01 84° NE 05:33:38 10° SE visible
18 Nov - 07:05:35 10° WNW 07:09:21 20° WSW 07:13:14 10° SSW daylight
18 Nov - 19:57:24 10° SSE 20:00:09 16° ESE 20:03:01 10° ENE night (unlit)
18 Nov - 21:36:54 10° SW 21:41:16 74° NW 21:46:02 10° NE night (unlit)
18 Nov - 23:20:35 10° WNW 23:23:56 20° NNW 23:27:28 10° NNE night (unlit)
19 Nov - 01:06:03 10° NNW 01:07:43 12° N 01:09:25 10° NNE visible
19 Nov - 02:48:20 10° NNW 02:51:37 17° NNE 02:55:04 10° ENE visible
19 Nov - 04:29:34 10° NNW 04:34:35 49° NE 04:39:57 10° ESE visible
19 Nov - 06:11:32 10° NW 06:16:21 37° WSW 06:21:27 10° S visible
19 Nov - 20:43:46 10° SSW 20:48:01 55° ESE 20:52:36 10° NE night (unlit)
19 Nov - 22:26:11 10° W 22:30:07 29° NW 22:34:20 10° NNE night (unlit)
20 Nov - 00:11:25 10° NW 00:13:34 13° NNW 00:15:47 10° NNE night (unlit)
20 Nov - 01:55:07 10° NNW 01:57:34 13° NNE 02:00:05 10° NE visible
20 Nov - 03:36:26 10° NNW 03:40:58 31° NE 03:45:48 10° E visible
20 Nov - 05:17:58 10° NW 05:23:11 68° WSW 05:28:45 10° SSE visible
20 Nov - 07:01:55 10° W 07:04:11 13° WSW 07:06:31 10° SW daylight
20 Nov - 19:51:22 10° SSE 19:55:00 26° ESE 19:58:51 10° NE night (unlit)
20 Nov - 21:32:11 10° WSW 21:36:29 49° NW 21:41:09 10° NNE night (unlit)
20 Nov - 23:16:35 10° WNW 23:19:29 16° NNW 23:22:32 10° NNE night (unlit)
21 Nov - 01:01:36 10° NNW 01:03:25 12° N 01:05:15 10° NNE night (unlit)
21 Nov - 02:43:19 10° NNW 02:47:09 21° NNE 02:51:13 10° ENE visible
21 Nov - 04:24:38 10° NNW 04:29:50 69° NE 04:35:25 10° SE visible
21 Nov - 06:07:02 10° WNW 06:11:19 25° WSW 06:15:48 10° SSW visible
21 Nov - 19:00:20 10° SE 19:02:11 12° ESE 19:04:04 10° E night (unlit)
21 Nov - 20:38:41 10° SSW 20:43:05 86° ESE 20:47:51 10° NE night (unlit)
21 Nov - 22:21:56 10° W 22:25:33 22° NNW 22:29:23 10° NNE night (unlit)
22 Nov - 00:07:23 10° NNW 00:09:13 12° N 00:11:06 10° NNE night (unlit)
22 Nov - 01:50:10 10° NNW 01:53:11 16° NNE 01:56:19 10° ENE visible
22 Nov - 03:31:26 10° NNW 03:36:19 41° NE 03:41:33 10° ESE visible
22 Nov - 05:13:13 10° NW 05:18:16 46° WSW 05:23:36 10° S visible
22 Nov - 19:45:47 10° S 19:49:54 42° ESE 19:54:19 10° NE night (unlit)
22 Nov - 21:27:39 10° WSW 21:31:47 35° NW 21:36:13 10° NNE night (unlit)
22 Nov - 23:12:36 10° NW 23:15:05 14° NNW 23:17:38 10° NNE night (unlit)
